Home > Weather > Bern > Past weeks

Flag for Switzerland Weather for the Past 2 Weeks in Bern, Bern, Switzerland

Now
45 °F

Partly cloudy.


Feels Like: 38 °F
Forecast: 37 / 44 °F
Wind: 13 mph from South

Location: Bern / Belp

Current Time: Feb 13, 2016 at 7:19:51 PM

Latest Report: Feb 13, 2016 at 6:50 PM


Visibility: N/A

Pressure: 29.27 "Hg (27.43 "Hg at 533m altitude)

Humidity: 76%

Dew point: 37 °F

Location of BernLocation

Historic Weather in Bern — Graph

°F

Bern Temperature Yesterday

Maximum temperature yesterday: 37 °F (at 11:50 AM)
Minimum temperature yesterday: 30 °F (at 6:50 AM)
Average temperature yesterday: 33 °F

High & Low Weather Summary for the Past Weeks

 TemperatureHumidityPressure
High59 °F (Feb 1, 11:50 AM)100% (Jan 29, 6:20 PM)30.48 "Hg (Jan 29, 6:20 PM)
Low25 °F (Feb 11, 7:20 AM)50% (Feb 9, 3:50 AM)29.18 "Hg (Feb 13, 3:20 PM)
Average41 °F85%29.96 "Hg
* Reported Jan 29 6:20 PM — Feb 13 6:20 PM, Bern, Weather by CustomWeather, © 2016

Note: Actual official high and low records may vary slightly from our data, if they occured in-between our weather recording intervals... More about our weather records

Advertising

Bern Weather History for the Previous 24 Hours

 ConditionsComfort  
Time TempWeatherWind HumidityBarometerVisibility
6:20 PM
Sat, Feb 13
43 °FPartly cloudy.14 mph81%29.27 "HgN/A
5:50 PM41 °FSprinkles. Passing clouds.7 mph87%29.24 "HgN/A
5:20 PM41 °FLight rain. Partly sunny.14 mph87%29.27 "HgN/A
4:50 PM43 °FMixture of precip. Partly sunny.10 mph93%29.27 "Hg4 mi
4:20 PM41 °FPartly sunny.3 mph100%29.21 "HgN/A
3:50 PM43 °FDrizzle. Partly sunny.8 mph87%29.21 "HgN/A
3:20 PM43 °FScattered showers. Partly sunny.3 mph81%29.18 "HgN/A
2:50 PM45 °FBroken clouds.2 mph76%29.21 "HgN/A
2:20 PM45 °FPartly sunny.10 mph81%29.24 "HgN/A
1:50 PM45 °FPartly sunny.5 mph76%29.27 "HgN/A
1:20 PM45 °FPartly sunny.3 mph76%29.27 "HgN/A
12:50 PM45 °FPartly sunny.2 mph76%29.30 "HgN/A
12:20 PM41 °FPartly sunny.No wind87%29.30 "HgN/A
11:50 AM39 °FBroken clouds.2 mph93%29.33 "HgN/A
11:20 AM39 °FSprinkles. Broken clouds.7 mph100%29.33 "HgN/A
10:50 AM37 °FBroken clouds.5 mph100%29.36 "HgN/A
10:20 AM39 °FLight rain. Broken clouds.9 mph93%29.36 "HgN/A
9:50 AM37 °FBroken clouds.6 mph93%29.36 "HgN/A
9:20 AM37 °FPartly sunny.2 mph100%29.36 "HgN/A
8:50 AM36 °FSunny.No wind100%29.36 "Hg10 mi
8:20 AM36 °FPassing clouds.6 mph100%29.36 "HgN/A
7:50 AM36 °FPassing clouds.2 mph100%29.36 "HgN/A
7:20 AM36 °FPassing clouds.1 mph100%29.36 "HgN/A
6:50 AM36 °FPassing clouds.2 mph100%29.39 "HgN/A
6:20 AM37 °FPassing clouds.2 mph93%29.39 "HgN/A
5:50 AM39 °FPassing clouds.3 mph87%29.39 "HgN/A
5:20 AM41 °FPassing clouds.6 mph81%29.39 "HgN/A
4:50 AM41 °FLight rain. Passing clouds.10 mph81%29.39 "HgN/A
4:20 AM43 °FPartly cloudy.9 mph76%29.39 "HgN/A
3:20 AM41 °FSprinkles. Partly cloudy.8 mph76%29.39 "HgN/A
2:20 AM41 °FPartly cloudy.5 mph81%29.36 "HgN/A
1:50 AM41 °FLight rain. Passing clouds.6 mph81%29.36 "HgN/A
1:20 AM34 °FFog.2 mph100%29.36 "Hg2 mi
12:50 AM34 °FPassing clouds.1 mph100%29.36 "Hg3 mi
12:20 AM34 °FFog.3 mph100%29.36 "Hg2 mi
11:50 PM
Fri, Feb 12
34 °FLight snow. Passing clouds.2 mph100%29.36 "Hg2 mi
11:20 PM34 °FLight snow. Partly cloudy.1 mph100%29.36 "Hg3 mi
10:20 PM34 °FLight snow. Partly cloudy.1 mph100%29.36 "Hg2 mi
9:50 PM34 °FLight snow. Partly cloudy.6 mph100%29.36 "Hg6 mi
9:20 PM36 °FPartly cloudy.6 mph93%29.36 "HgN/A
8:50 PM34 °FPartly cloudy.5 mph100%29.36 "HgN/A
8:20 PM34 °FSnow flurries. Partly cloudy.3 mph100%29.36 "Hg3 mi
7:50 PM34 °FPassing clouds.2 mph100%29.36 "Hg5 mi
7:20 PM32 °FLight snow. Mostly cloudy.2 mph100%29.39 "Hg2 mi
Weather by CustomWeather, © 2016

See weather overviewHow to use our weather pages